Year,Month,Day,Hour,Minute,Value (Times are PST for insolation in W/m^2)
2020,01,24,00,00,0.00
2020,01,24,00,01,0.00
2020,01,24,00,02,0.00
2020,01,24,00,03,0.00
2020,01,24,00,04,0.00
2020,01,24,00,05,0.00
2020,01,24,00,06,0.00
2020,01,24,00,07,0.00
2020,01,24,00,08,0.00
2020,01,24,00,09,0.00
2020,01,24,00,10,0.00
2020,01,24,00,11,0.00
2020,01,24,00,12,0.00
2020,01,24,00,13,0.00
2020,01,24,00,14,0.00
2020,01,24,00,15,0.00
2020,01,24,00,16,0.00
2020,01,24,00,17,0.00
2020,01,24,00,18,0.00
2020,01,24,00,19,0.00
2020,01,24,00,20,0.00
2020,01,24,00,21,0.00
2020,01,24,00,22,0.00
2020,01,24,00,23,0.00
2020,01,24,00,24,0.00
2020,01,24,00,25,0.00
2020,01,24,00,26,0.00
2020,01,24,00,27,0.00
2020,01,24,00,28,0.00
2020,01,24,00,29,0.00
2020,01,24,00,30,0.00
2020,01,24,00,31,0.00
2020,01,24,00,32,0.00
2020,01,24,00,33,0.00
2020,01,24,00,34,0.00
2020,01,24,00,35,0.00
2020,01,24,00,36,0.00
2020,01,24,00,37,0.00
2020,01,24,00,38,0.00
2020,01,24,00,39,0.00
2020,01,24,00,40,0.00
2020,01,24,00,41,0.00
2020,01,24,00,42,0.00
2020,01,24,00,43,0.00
2020,01,24,00,44,0.00
2020,01,24,00,45,0.00
2020,01,24,00,46,0.00
2020,01,24,00,47,0.00
2020,01,24,00,48,0.00
2020,01,24,00,49,0.00
2020,01,24,00,50,0.00
2020,01,24,00,51,0.00
2020,01,24,00,52,0.00
2020,01,24,00,53,0.00
2020,01,24,00,54,0.00
2020,01,24,00,55,0.00
2020,01,24,00,56,0.00
2020,01,24,00,57,0.00
2020,01,24,00,58,0.00
2020,01,24,00,59,0.00
2020,01,24,01,00,0.00
2020,01,24,01,01,0.00
2020,01,24,01,02,0.00
2020,01,24,01,03,0.00
2020,01,24,01,04,0.00
2020,01,24,01,05,0.00
2020,01,24,01,06,0.00
2020,01,24,01,07,0.00
2020,01,24,01,08,0.00
2020,01,24,01,09,0.00
2020,01,24,01,10,0.00
2020,01,24,01,11,0.00
2020,01,24,01,12,0.00
2020,01,24,01,13,0.00
2020,01,24,01,14,0.00
2020,01,24,01,15,0.00
2020,01,24,01,16,0.00
2020,01,24,01,17,0.00
2020,01,24,01,18,0.00
2020,01,24,01,19,0.00
2020,01,24,01,20,0.00
2020,01,24,01,21,0.00
2020,01,24,01,22,0.00
2020,01,24,01,23,0.00
2020,01,24,01,24,0.00
2020,01,24,01,25,0.00
2020,01,24,01,26,0.00
2020,01,24,01,27,0.00
2020,01,24,01,28,0.00
2020,01,24,01,29,0.00
2020,01,24,01,30,0.00
2020,01,24,01,31,0.00
2020,01,24,01,32,0.00
2020,01,24,01,33,0.00
2020,01,24,01,34,0.00
2020,01,24,01,35,0.00
2020,01,24,01,36,0.00
2020,01,24,01,37,0.00
2020,01,24,01,38,0.00
2020,01,24,01,39,0.00
2020,01,24,01,40,0.00
2020,01,24,01,41,0.00
2020,01,24,01,42,0.00
2020,01,24,01,43,0.00
2020,01,24,01,44,0.00
2020,01,24,01,45,0.00
2020,01,24,01,46,0.00
2020,01,24,01,47,0.00
2020,01,24,01,48,0.00
2020,01,24,01,49,0.00
2020,01,24,01,50,0.00
2020,01,24,01,51,0.00
2020,01,24,01,52,0.00
2020,01,24,01,53,0.00
2020,01,24,01,54,0.00
2020,01,24,01,55,0.00
2020,01,24,01,56,0.00
2020,01,24,01,57,0.00
2020,01,24,01,58,0.00
2020,01,24,01,59,0.00
2020,01,24,02,00,0.00
2020,01,24,02,01,0.00
2020,01,24,02,02,0.00
2020,01,24,02,03,0.00
2020,01,24,02,04,0.00
2020,01,24,02,05,0.00
2020,01,24,02,06,0.00
2020,01,24,02,07,0.00
2020,01,24,02,08,0.00
2020,01,24,02,09,0.00
2020,01,24,02,10,0.00
2020,01,24,02,11,0.00
2020,01,24,02,12,0.00
2020,01,24,02,13,0.00
2020,01,24,02,14,0.00
2020,01,24,02,15,0.00
2020,01,24,02,16,0.00
2020,01,24,02,17,0.00
2020,01,24,02,18,0.00
2020,01,24,02,19,0.00
2020,01,24,02,20,0.00
2020,01,24,02,21,0.00
2020,01,24,02,22,0.00
2020,01,24,02,23,0.00
2020,01,24,02,24,0.00
2020,01,24,02,25,0.00
2020,01,24,02,26,0.00
2020,01,24,02,27,0.00
2020,01,24,02,28,0.00
2020,01,24,02,29,0.00
2020,01,24,02,30,0.00
2020,01,24,02,31,0.00
2020,01,24,02,32,0.00
2020,01,24,02,33,0.00
2020,01,24,02,34,0.00
2020,01,24,02,35,0.00
2020,01,24,02,36,0.00
2020,01,24,02,37,0.00
2020,01,24,02,38,0.00
2020,01,24,02,39,0.00
2020,01,24,02,40,0.00
2020,01,24,02,41,0.00
2020,01,24,02,42,0.00
2020,01,24,02,43,0.00
2020,01,24,02,44,0.00
2020,01,24,02,45,0.00
2020,01,24,02,46,0.00
2020,01,24,02,47,0.00
2020,01,24,02,48,0.00
2020,01,24,02,49,0.00
2020,01,24,02,50,0.00
2020,01,24,02,51,0.00
2020,01,24,02,52,0.00
2020,01,24,02,53,0.00
2020,01,24,02,54,0.00
2020,01,24,02,55,0.00
2020,01,24,02,56,0.00
2020,01,24,02,57,0.00
2020,01,24,02,58,0.00
2020,01,24,02,59,0.00
2020,01,24,03,00,0.00
2020,01,24,03,01,0.00
2020,01,24,03,02,0.00
2020,01,24,03,03,0.00
2020,01,24,03,04,0.00
2020,01,24,03,05,0.00
2020,01,24,03,06,0.00
2020,01,24,03,07,0.00
2020,01,24,03,08,0.00
2020,01,24,03,09,0.00
2020,01,24,03,10,0.00
2020,01,24,03,11,0.00
2020,01,24,03,12,0.00
2020,01,24,03,13,0.00
2020,01,24,03,14,0.00
2020,01,24,03,15,0.00
2020,01,24,03,16,0.00
2020,01,24,03,17,0.00
2020,01,24,03,18,0.00
2020,01,24,03,19,0.00
2020,01,24,03,20,0.00
2020,01,24,03,21,0.00
2020,01,24,03,22,0.00
2020,01,24,03,23,0.00
2020,01,24,03,24,0.00
2020,01,24,03,25,0.00
2020,01,24,03,26,0.00
2020,01,24,03,27,0.00
2020,01,24,03,28,0.00
2020,01,24,03,29,0.00
2020,01,24,03,30,0.00
2020,01,24,03,31,0.00
2020,01,24,03,32,0.00
2020,01,24,03,33,0.00
2020,01,24,03,34,0.00
2020,01,24,03,35,0.00
2020,01,24,03,36,0.00
2020,01,24,03,37,0.00
2020,01,24,03,38,0.00
2020,01,24,03,39,0.00
2020,01,24,03,40,0.00
2020,01,24,03,41,0.00
2020,01,24,03,42,0.00
2020,01,24,03,43,0.00
2020,01,24,03,44,0.00
2020,01,24,03,45,0.00
2020,01,24,03,46,0.00
2020,01,24,03,47,0.00
2020,01,24,03,48,0.00
2020,01,24,03,49,0.00
2020,01,24,03,50,0.00
2020,01,24,03,51,0.00
2020,01,24,03,52,0.00
2020,01,24,03,53,0.00
2020,01,24,03,54,0.00
2020,01,24,03,55,0.00
2020,01,24,03,56,0.00
2020,01,24,03,57,0.00
2020,01,24,03,58,0.00
2020,01,24,03,59,0.00
2020,01,24,04,00,0.00
2020,01,24,04,01,0.00
2020,01,24,04,02,0.00
2020,01,24,04,03,0.00
2020,01,24,04,04,0.00
2020,01,24,04,05,0.00
2020,01,24,04,06,0.00
2020,01,24,04,07,0.00
2020,01,24,04,08,0.00
2020,01,24,04,09,0.00
2020,01,24,04,10,0.00
2020,01,24,04,11,0.00
2020,01,24,04,12,0.00
2020,01,24,04,13,0.00
2020,01,24,04,14,0.00
2020,01,24,04,15,0.00
2020,01,24,04,16,0.00
2020,01,24,04,17,0.00
2020,01,24,04,18,0.00
2020,01,24,04,19,0.00
2020,01,24,04,20,0.00
2020,01,24,04,21,0.00
2020,01,24,04,22,0.00
2020,01,24,04,23,0.00
2020,01,24,04,24,0.00
2020,01,24,04,25,0.00
2020,01,24,04,26,0.00
2020,01,24,04,27,0.00
2020,01,24,04,28,0.00
2020,01,24,04,29,0.00
2020,01,24,04,30,0.00
2020,01,24,04,31,0.00
2020,01,24,04,32,0.00
2020,01,24,04,33,0.00
2020,01,24,04,34,0.00
2020,01,24,04,35,0.00
2020,01,24,04,36,0.00
2020,01,24,04,37,0.00
2020,01,24,04,38,0.00
2020,01,24,04,39,0.00
2020,01,24,04,40,0.00
2020,01,24,04,41,0.00
2020,01,24,04,42,0.00
2020,01,24,04,43,0.00
2020,01,24,04,44,0.00
2020,01,24,04,45,0.00
2020,01,24,04,46,0.00
2020,01,24,04,47,0.00
2020,01,24,04,48,0.00
2020,01,24,04,49,0.00
2020,01,24,04,50,0.00
2020,01,24,04,51,0.00
2020,01,24,04,52,0.00
2020,01,24,04,53,0.00
2020,01,24,04,54,0.00
2020,01,24,04,55,0.00
2020,01,24,04,56,0.00
2020,01,24,04,57,0.00
2020,01,24,04,58,0.00
2020,01,24,04,59,0.00
2020,01,24,05,00,0.00
2020,01,24,05,01,0.00
2020,01,24,05,02,0.00
2020,01,24,05,03,0.00
2020,01,24,05,04,0.00
2020,01,24,05,05,0.00
2020,01,24,05,06,0.00
2020,01,24,05,07,0.00
2020,01,24,05,08,0.00
2020,01,24,05,09,0.00
2020,01,24,05,10,0.00
2020,01,24,05,11,0.00
2020,01,24,05,12,0.00
2020,01,24,05,13,0.00
2020,01,24,05,14,0.00
2020,01,24,05,15,0.00
2020,01,24,05,16,0.00
2020,01,24,05,17,0.00
2020,01,24,05,18,0.00
2020,01,24,05,19,0.00
2020,01,24,05,20,0.00
2020,01,24,05,21,0.00
2020,01,24,05,22,0.00
2020,01,24,05,23,0.00
2020,01,24,05,24,0.00
2020,01,24,05,25,0.00
2020,01,24,05,26,0.00
2020,01,24,05,27,0.00
2020,01,24,05,28,0.00
2020,01,24,05,29,0.00
2020,01,24,05,30,0.00
2020,01,24,05,31,0.00
2020,01,24,05,32,0.00
2020,01,24,05,33,0.00
2020,01,24,05,34,0.00
2020,01,24,05,35,0.00
2020,01,24,05,36,0.00
2020,01,24,05,37,0.00
2020,01,24,05,38,0.00
2020,01,24,05,39,0.00
2020,01,24,05,40,0.00
2020,01,24,05,41,0.00
2020,01,24,05,42,0.00
2020,01,24,05,43,0.00
2020,01,24,05,44,0.00
2020,01,24,05,45,0.00
2020,01,24,05,46,0.00
2020,01,24,05,47,0.00
2020,01,24,05,48,0.00
2020,01,24,05,49,0.00
2020,01,24,05,50,0.00
2020,01,24,05,51,0.00
2020,01,24,05,52,0.00
2020,01,24,05,53,0.00
2020,01,24,05,54,0.00
2020,01,24,05,55,0.00
2020,01,24,05,56,0.00
2020,01,24,05,57,0.00
2020,01,24,05,58,0.00
2020,01,24,05,59,0.00
2020,01,24,06,00,0.00
2020,01,24,06,01,0.00
2020,01,24,06,02,0.00
2020,01,24,06,03,0.00
2020,01,24,06,04,0.00
2020,01,24,06,05,0.00
2020,01,24,06,06,0.00
2020,01,24,06,07,0.00
2020,01,24,06,08,0.00
2020,01,24,06,09,0.00
2020,01,24,06,10,0.00
2020,01,24,06,11,0.00
2020,01,24,06,12,0.00
2020,01,24,06,13,0.00
2020,01,24,06,14,0.00
2020,01,24,06,15,0.00
2020,01,24,06,16,0.00
2020,01,24,06,17,0.00
2020,01,24,06,18,0.00
2020,01,24,06,19,0.00
2020,01,24,06,20,0.00
2020,01,24,06,21,0.00
2020,01,24,06,22,0.00
2020,01,24,06,23,0.00
2020,01,24,06,24,0.00
2020,01,24,06,25,0.00
2020,01,24,06,26,0.00
2020,01,24,06,27,0.00
2020,01,24,06,28,0.00
2020,01,24,06,29,0.00
2020,01,24,06,30,0.00
2020,01,24,06,31,0.00
2020,01,24,06,32,0.00
2020,01,24,06,33,0.00
2020,01,24,06,34,0.00
2020,01,24,06,35,0.00
2020,01,24,06,36,0.00
2020,01,24,06,37,0.00
2020,01,24,06,38,0.00
2020,01,24,06,39,0.00
2020,01,24,06,40,0.00
2020,01,24,06,41,0.00
2020,01,24,06,42,0.00
2020,01,24,06,43,0.00
2020,01,24,06,44,0.00
2020,01,24,06,45,0.00
2020,01,24,06,46,0.00
2020,01,24,06,47,0.00
2020,01,24,06,48,0.00
2020,01,24,06,49,0.00
2020,01,24,06,50,0.00
2020,01,24,06,51,0.00
2020,01,24,06,52,0.00
2020,01,24,06,53,0.00
2020,01,24,06,54,0.00
2020,01,24,06,55,0.00
2020,01,24,06,56,0.00
2020,01,24,06,57,0.00
2020,01,24,06,58,0.00
2020,01,24,06,59,0.00
2020,01,24,07,00,0.00
2020,01,24,07,01,0.00
2020,01,24,07,02,0.00
2020,01,24,07,03,0.00
2020,01,24,07,04,0.00
2020,01,24,07,05,0.00
2020,01,24,07,06,0.00
2020,01,24,07,07,0.00
2020,01,24,07,08,0.00
2020,01,24,07,09,0.00
2020,01,24,07,10,0.00
2020,01,24,07,11,0.00
2020,01,24,07,12,0.00
2020,01,24,07,13,0.00
2020,01,24,07,14,0.00
2020,01,24,07,15,0.00
2020,01,24,07,16,0.00
2020,01,24,07,17,0.00
2020,01,24,07,18,0.00
2020,01,24,07,19,0.00
2020,01,24,07,20,0.00
2020,01,24,07,21,0.00
2020,01,24,07,22,0.00
2020,01,24,07,23,0.00
2020,01,24,07,24,0.00
2020,01,24,07,25,0.00
2020,01,24,07,26,0.00
2020,01,24,07,27,0.00
2020,01,24,07,28,0.00
2020,01,24,07,29,0.00
2020,01,24,07,30,0.00
2020,01,24,07,31,0.00
2020,01,24,07,32,0.00
2020,01,24,07,33,0.00
2020,01,24,07,34,0.00
2020,01,24,07,35,0.00
2020,01,24,07,36,0.00
2020,01,24,07,37,0.00
2020,01,24,07,38,0.00
2020,01,24,07,39,0.00
2020,01,24,07,40,0.00
2020,01,24,07,41,0.00
2020,01,24,07,42,0.00
2020,01,24,07,43,0.00
2020,01,24,07,44,0.00
2020,01,24,07,45,0.00
2020,01,24,07,46,0.00
2020,01,24,07,47,0.00
2020,01,24,07,48,0.00
2020,01,24,07,49,0.00
2020,01,24,07,50,0.00
2020,01,24,07,51,0.00
2020,01,24,07,52,0.00
2020,01,24,07,53,0.00
2020,01,24,07,54,0.00
2020,01,24,07,55,0.00
2020,01,24,07,56,0.00
2020,01,24,07,57,0.00
2020,01,24,07,58,4.00
2020,01,24,07,59,5.00
2020,01,24,08,00,5.00
2020,01,24,08,01,5.00
2020,01,24,08,02,5.00
2020,01,24,08,03,5.00
2020,01,24,08,04,5.00
2020,01,24,08,05,5.00
2020,01,24,08,06,6.50
2020,01,24,08,07,7.00
2020,01,24,08,08,7.00
2020,01,24,08,09,7.00
2020,01,24,08,10,7.00
2020,01,24,08,11,7.00
2020,01,24,08,12,7.90
2020,01,24,08,13,9.00
2020,01,24,08,14,9.00
2020,01,24,08,15,10.60
2020,01,24,08,16,11.00
2020,01,24,08,17,11.10
2020,01,24,08,18,12.00
2020,01,24,08,19,13.50
2020,01,24,08,20,16.90
2020,01,24,08,21,20.80
2020,01,24,08,22,26.50
2020,01,24,08,23,29.60
2020,01,24,08,24,30.00
2020,01,24,08,25,30.50
2020,01,24,08,26,35.80
2020,01,24,08,27,39.80
2020,01,24,08,28,42.00
2020,01,24,08,29,44.60
2020,01,24,08,30,46.40
2020,01,24,08,31,46.00
2020,01,24,08,32,46.00
2020,01,24,08,33,48.70
2020,01,24,08,34,53.40
2020,01,24,08,35,57.50
2020,01,24,08,36,62.30
2020,01,24,08,37,63.90
2020,01,24,08,38,66.10
2020,01,24,08,39,68.30
2020,01,24,08,40,69.00
2020,01,24,08,41,67.30
2020,01,24,08,42,63.50
2020,01,24,08,43,69.90
2020,01,24,08,44,74.80
2020,01,24,08,45,79.50
2020,01,24,08,46,89.50
2020,01,24,08,47,98.00
2020,01,24,08,48,102.70
2020,01,24,08,49,100.80
2020,01,24,08,50,93.60
2020,01,24,08,51,92.10
2020,01,24,08,52,84.00
2020,01,24,08,53,84.00
2020,01,24,08,54,84.00
2020,01,24,08,55,85.00
2020,01,24,08,56,87.30
2020,01,24,08,57,86.60
2020,01,24,08,58,81.70
2020,01,24,08,59,79.10
2020,01,24,09,00,78.70
2020,01,24,09,01,77.00
2020,01,24,09,02,77.80
2020,01,24,09,03,81.00
2020,01,24,09,04,84.60
2020,01,24,09,05,89.20
2020,01,24,09,06,96.20
2020,01,24,09,07,103.10
2020,01,24,09,08,104.00
2020,01,24,09,09,101.40
2020,01,24,09,10,86.50
2020,01,24,09,11,74.00
2020,01,24,09,12,68.00
2020,01,24,09,13,68.90
2020,01,24,09,14,76.30
2020,01,24,09,15,79.00
2020,01,24,09,16,93.50
2020,01,24,09,17,85.50
2020,01,24,09,18,78.60
2020,01,24,09,19,80.00
2020,01,24,09,20,126.50
2020,01,24,09,21,159.70
2020,01,24,09,22,163.00
2020,01,24,09,23,157.70
2020,01,24,09,24,169.60
2020,01,24,09,25,171.50
2020,01,24,09,26,150.20
2020,01,24,09,27,97.30
2020,01,24,09,28,98.00
2020,01,24,09,29,97.50
2020,01,24,09,30,92.70
2020,01,24,09,31,85.90
2020,01,24,09,32,78.70
2020,01,24,09,33,70.10
2020,01,24,09,34,57.80
2020,01,24,09,35,57.00
2020,01,24,09,36,63.20
2020,01,24,09,37,74.60
2020,01,24,09,38,90.00
2020,01,24,09,39,98.80
2020,01,24,09,40,105.00
2020,01,24,09,41,99.70
2020,01,24,09,42,89.70
2020,01,24,09,43,73.90
2020,01,24,09,44,59.40
2020,01,24,09,45,46.70
2020,01,24,09,46,40.70
2020,01,24,09,47,39.00
2020,01,24,09,48,36.30
2020,01,24,09,49,32.70
2020,01,24,09,50,26.90
2020,01,24,09,51,25.00
2020,01,24,09,52,25.90
2020,01,24,09,53,32.60
2020,01,24,09,54,42.80
2020,01,24,09,55,51.60
2020,01,24,09,56,55.10
2020,01,24,09,57,54.70
2020,01,24,09,58,50.00
2020,01,24,09,59,46.30
2020,01,24,10,00,43.80
2020,01,24,10,01,41.30
2020,01,24,10,02,36.70
2020,01,24,10,03,31.60
2020,01,24,10,04,27.90
2020,01,24,10,05,25.30
2020,01,24,10,06,22.00
2020,01,24,10,07,19.30
2020,01,24,10,08,19.00
2020,01,24,10,09,19.00
2020,01,24,10,10,19.00
2020,01,24,10,11,19.00
2020,01,24,10,12,18.50
2020,01,24,10,13,16.90
2020,01,24,10,14,14.70
2020,01,24,10,15,14.00
2020,01,24,10,16,12.30
2020,01,24,10,17,11.00
2020,01,24,10,18,10.50
2020,01,24,10,19,9.00
2020,01,24,10,20,9.00
2020,01,24,10,21,9.00
2020,01,24,10,22,7.80
2020,01,24,10,23,7.00
2020,01,24,10,24,7.00
2020,01,24,10,25,7.00
2020,01,24,10,26,7.00
2020,01,24,10,27,6.50
2020,01,24,10,28,5.00
2020,01,24,10,29,5.00
2020,01,24,10,30,5.00
2020,01,24,10,31,5.00
2020,01,24,10,32,5.00
2020,01,24,10,33,5.00
2020,01,24,10,34,0.00
2020,01,24,10,35,0.00
2020,01,24,10,36,1.40
2020,01,24,10,37,5.00
2020,01,24,10,38,5.00
2020,01,24,10,39,5.00
2020,01,24,10,40,5.00
2020,01,24,10,41,6.60
2020,01,24,10,42,8.80
2020,01,24,10,43,11.40
2020,01,24,10,44,15.00
2020,01,24,10,45,19.00
2020,01,24,10,46,22.70
2020,01,24,10,47,25.50
2020,01,24,10,48,26.00
2020,01,24,10,49,35.30
2020,01,24,10,50,41.50
2020,01,24,10,51,42.00
2020,01,24,10,52,44.20
2020,01,24,10,53,63.90
2020,01,24,10,54,70.00
2020,01,24,10,55,70.00
2020,01,24,10,56,230.00
2020,01,24,10,57,357.80
2020,01,24,10,58,368.80
2020,01,24,10,59,371.00
2020,01,24,11,00,371.00
2020,01,24,11,01,368.30
2020,01,24,11,02,359.00
2020,01,24,11,03,359.00
2020,01,24,11,04,361.40
2020,01,24,11,05,343.60
2020,01,24,11,06,347.90
2020,01,24,11,07,352.60
2020,01,24,11,08,346.50
2020,01,24,11,09,340.10
2020,01,24,11,10,315.30
2020,01,24,11,11,329.00
2020,01,24,11,12,329.00
2020,01,24,11,13,251.50
2020,01,24,11,14,207.00
2020,01,24,11,15,221.00
2020,01,24,11,16,346.10
2020,01,24,11,17,356.90
2020,01,24,11,18,158.10
2020,01,24,11,19,122.80
2020,01,24,11,20,108.90
2020,01,24,11,21,102.90
2020,01,24,11,22,107.00
2020,01,24,11,23,109.00
2020,01,24,11,24,103.30
2020,01,24,11,25,93.80
2020,01,24,11,26,88.20
2020,01,24,11,27,89.50
2020,01,24,11,28,85.00
2020,01,24,11,29,73.90
2020,01,24,11,30,60.20
2020,01,24,11,31,49.30
2020,01,24,11,32,46.30
2020,01,24,11,33,46.80
2020,01,24,11,34,51.00
2020,01,24,11,35,53.80
2020,01,24,11,36,52.50
2020,01,24,11,37,51.80
2020,01,24,11,38,53.00
2020,01,24,11,39,53.60
2020,01,24,11,40,56.90
2020,01,24,11,41,54.80
2020,01,24,11,42,49.50
2020,01,24,11,43,43.60
2020,01,24,11,44,39.80
2020,01,24,11,45,39.30
2020,01,24,11,46,41.60
2020,01,24,11,47,48.50
2020,01,24,11,48,61.70
2020,01,24,11,49,81.20
2020,01,24,11,50,102.30
2020,01,24,11,51,117.80
2020,01,24,11,52,127.40
2020,01,24,11,53,130.00
2020,01,24,11,54,131.30
2020,01,24,11,55,167.80
2020,01,24,11,56,235.70
2020,01,24,11,57,222.30
2020,01,24,11,58,205.60
2020,01,24,11,59,190.70
2020,01,24,12,00,188.90
2020,01,24,12,01,198.00
2020,01,24,12,02,204.00
2020,01,24,12,03,216.60
2020,01,24,12,04,229.50
2020,01,24,12,05,230.90
2020,01,24,12,06,229.80
2020,01,24,12,07,246.90
2020,01,24,12,08,240.10
2020,01,24,12,09,251.00
2020,01,24,12,10,251.00
2020,01,24,12,11,262.20
2020,01,24,12,12,286.00
2020,01,24,12,13,315.30
2020,01,24,12,14,336.00
2020,01,24,12,15,463.20
2020,01,24,12,16,503.00
2020,01,24,12,17,275.00
2020,01,24,12,18,269.50
2020,01,24,12,19,217.00
2020,01,24,12,20,231.70
2020,01,24,12,21,243.40
2020,01,24,12,22,216.40
2020,01,24,12,23,207.10
2020,01,24,12,24,197.10
2020,01,24,12,25,143.20
2020,01,24,12,26,97.30
2020,01,24,12,27,93.90
2020,01,24,12,28,108.90
2020,01,24,12,29,122.80
2020,01,24,12,30,143.10
2020,01,24,12,31,207.00
2020,01,24,12,32,239.00
2020,01,24,12,33,239.00
2020,01,24,12,34,473.90
2020,01,24,12,35,457.00
2020,01,24,12,36,418.00
2020,01,24,12,37,286.90
2020,01,24,12,38,293.20
2020,01,24,12,39,329.00
2020,01,24,12,40,235.00
2020,01,24,12,41,181.00
2020,01,24,12,42,179.00
2020,01,24,12,43,271.10
2020,01,24,12,44,288.60
2020,01,24,12,45,266.60
2020,01,24,12,46,207.00
2020,01,24,12,47,181.00
2020,01,24,12,48,181.00
2020,01,24,12,49,111.90
2020,01,24,12,50,76.40
2020,01,24,12,51,67.70
2020,01,24,12,52,64.00
2020,01,24,12,53,70.80
2020,01,24,12,54,76.70
2020,01,24,12,55,88.10
2020,01,24,12,56,129.30
2020,01,24,12,57,189.90
2020,01,24,12,58,191.80
2020,01,24,12,59,236.00
2020,01,24,13,00,318.80
2020,01,24,13,01,332.00
2020,01,24,13,02,332.00
2020,01,24,13,03,304.60
2020,01,24,13,04,260.00
2020,01,24,13,05,268.40
2020,01,24,13,06,262.60
2020,01,24,13,07,312.20
2020,01,24,13,08,388.90
2020,01,24,13,09,352.40
2020,01,24,13,10,321.30
2020,01,24,13,11,296.80
2020,01,24,13,12,303.10
2020,01,24,13,13,300.50
2020,01,24,13,14,295.00
2020,01,24,13,15,278.60
2020,01,24,13,16,286.60
2020,01,24,13,17,289.50
2020,01,24,13,18,332.20
2020,01,24,13,19,305.40
2020,01,24,13,20,262.30
2020,01,24,13,21,205.10
2020,01,24,13,22,143.10
2020,01,24,13,23,158.00
2020,01,24,13,24,196.00
2020,01,24,13,25,146.00
2020,01,24,13,26,137.50
2020,01,24,13,27,140.60
2020,01,24,13,28,141.40
2020,01,24,13,29,169.50
2020,01,24,13,30,201.20
2020,01,24,13,31,254.80
2020,01,24,13,32,306.10
2020,01,24,13,33,348.40
2020,01,24,13,34,359.50
2020,01,24,13,35,381.40
2020,01,24,13,36,392.20
2020,01,24,13,37,386.30
2020,01,24,13,38,373.20
2020,01,24,13,39,369.00
2020,01,24,13,40,380.60
2020,01,24,13,41,375.20
2020,01,24,13,42,373.00
2020,01,24,13,43,375.60
2020,01,24,13,44,370.40
2020,01,24,13,45,367.60
2020,01,24,13,46,360.30
2020,01,24,13,47,351.50
2020,01,24,13,48,372.20
2020,01,24,13,49,380.00
2020,01,24,13,50,174.50
2020,01,24,13,51,120.00
2020,01,24,13,52,126.30
2020,01,24,13,53,119.60
2020,01,24,13,54,118.00
2020,01,24,13,55,114.70
2020,01,24,13,56,108.00
2020,01,24,13,57,111.30
2020,01,24,13,58,120.40
2020,01,24,13,59,136.00
2020,01,24,14,00,147.10
2020,01,24,14,01,148.00
2020,01,24,14,02,153.80
2020,01,24,14,03,167.70
2020,01,24,14,04,158.20
2020,01,24,14,05,151.80
2020,01,24,14,06,150.20
2020,01,24,14,07,165.40
2020,01,24,14,08,170.70
2020,01,24,14,09,147.90
2020,01,24,14,10,147.30
2020,01,24,14,11,152.50
2020,01,24,14,12,147.30
2020,01,24,14,13,136.30
2020,01,24,14,14,125.80
2020,01,24,14,15,121.70
2020,01,24,14,16,117.00
2020,01,24,14,17,111.30
2020,01,24,14,18,103.40
2020,01,24,14,19,98.00
2020,01,24,14,20,95.50
2020,01,24,14,21,87.60
2020,01,24,14,22,83.50
2020,01,24,14,23,79.10
2020,01,24,14,24,68.40
2020,01,24,14,25,57.60
2020,01,24,14,26,49.50
2020,01,24,14,27,45.40
2020,01,24,14,28,41.50
2020,01,24,14,29,40.00
2020,01,24,14,30,40.90
2020,01,24,14,31,41.00
2020,01,24,14,32,39.30
2020,01,24,14,33,39.00
2020,01,24,14,34,41.70
2020,01,24,14,35,46.30
2020,01,24,14,36,51.10
2020,01,24,14,37,65.10
2020,01,24,14,38,81.70
2020,01,24,14,39,89.10
2020,01,24,14,40,90.60
2020,01,24,14,41,90.30
2020,01,24,14,42,112.70
2020,01,24,14,43,149.80
2020,01,24,14,44,156.50
2020,01,24,14,45,177.80
2020,01,24,14,46,202.90
2020,01,24,14,47,201.50
2020,01,24,14,48,232.90
2020,01,24,14,49,233.00
2020,01,24,14,50,215.40
2020,01,24,14,51,196.80
2020,01,24,14,52,179.90
2020,01,24,14,53,164.40
2020,01,24,14,54,142.50
2020,01,24,14,55,130.10
2020,01,24,14,56,123.50
2020,01,24,14,57,121.80
2020,01,24,14,58,140.50
2020,01,24,14,59,118.40
2020,01,24,15,00,119.10
2020,01,24,15,01,101.00
2020,01,24,15,02,89.00
2020,01,24,15,03,79.30
2020,01,24,15,04,75.10
2020,01,24,15,05,75.10
2020,01,24,15,06,76.00
2020,01,24,15,07,92.80
2020,01,24,15,08,138.90
2020,01,24,15,09,72.60
2020,01,24,15,10,61.70
2020,01,24,15,11,60.00
2020,01,24,15,12,60.00
2020,01,24,15,13,61.00
2020,01,24,15,14,63.70
2020,01,24,15,15,68.30
2020,01,24,15,16,82.60
2020,01,24,15,17,83.40
2020,01,24,15,18,96.60
2020,01,24,15,19,118.00
2020,01,24,15,20,148.90
2020,01,24,15,21,213.70
2020,01,24,15,22,183.60
2020,01,24,15,23,143.00
2020,01,24,15,24,116.30
2020,01,24,15,25,176.40
2020,01,24,15,26,211.40
2020,01,24,15,27,209.00
2020,01,24,15,28,177.80
2020,01,24,15,29,83.60
2020,01,24,15,30,82.00
2020,01,24,15,31,82.10
2020,01,24,15,32,83.00
2020,01,24,15,33,83.00
2020,01,24,15,34,146.20
2020,01,24,15,35,156.80
2020,01,24,15,36,171.00
2020,01,24,15,37,145.00
2020,01,24,15,38,60.50
2020,01,24,15,39,55.50
2020,01,24,15,40,50.40
2020,01,24,15,41,47.60
2020,01,24,15,42,46.20
2020,01,24,15,43,71.20
2020,01,24,15,44,77.70
2020,01,24,15,45,61.00
2020,01,24,15,46,41.90
2020,01,24,15,47,36.10
2020,01,24,15,48,34.00
2020,01,24,15,49,33.00
2020,01,24,15,50,33.00
2020,01,24,15,51,46.60
2020,01,24,15,52,46.50
2020,01,24,15,53,34.50
2020,01,24,15,54,42.00
2020,01,24,15,55,72.60
2020,01,24,15,56,73.10
2020,01,24,15,57,70.90
2020,01,24,15,58,60.80
2020,01,24,15,59,66.60
2020,01,24,16,00,69.10
2020,01,24,16,01,73.80
2020,01,24,16,02,71.00
2020,01,24,16,03,59.30
2020,01,24,16,04,51.20
2020,01,24,16,05,57.70
2020,01,24,16,06,46.20
2020,01,24,16,07,40.60
2020,01,24,16,08,44.90
2020,01,24,16,09,45.70
2020,01,24,16,10,38.10
2020,01,24,16,11,33.00
2020,01,24,16,12,37.30
2020,01,24,16,13,45.00
2020,01,24,16,14,44.00
2020,01,24,16,15,38.40
2020,01,24,16,16,38.10
2020,01,24,16,17,33.90
2020,01,24,16,18,33.00
2020,01,24,16,19,31.30
2020,01,24,16,20,30.70
2020,01,24,16,21,35.40
2020,01,24,16,22,33.00
2020,01,24,16,23,32.40
2020,01,24,16,24,30.60
2020,01,24,16,25,26.00
2020,01,24,16,26,23.20
2020,01,24,16,27,18.90
2020,01,24,16,28,17.50
2020,01,24,16,29,16.00
2020,01,24,16,30,16.00
2020,01,24,16,31,16.00
2020,01,24,16,32,14.80
2020,01,24,16,33,14.00
2020,01,24,16,34,14.00
2020,01,24,16,35,14.00
2020,01,24,16,36,14.00
2020,01,24,16,37,13.40
2020,01,24,16,38,12.00
2020,01,24,16,39,12.00
2020,01,24,16,40,12.00
2020,01,24,16,41,11.30
2020,01,24,16,42,11.00
2020,01,24,16,43,11.00
2020,01,24,16,44,11.00
2020,01,24,16,45,10.60
2020,01,24,16,46,9.00
2020,01,24,16,47,9.00
2020,01,24,16,48,9.00
2020,01,24,16,49,9.00
2020,01,24,16,50,7.50
2020,01,24,16,51,7.00
2020,01,24,16,52,7.00
2020,01,24,16,53,6.70
2020,01,24,16,54,5.00
2020,01,24,16,55,5.00
2020,01,24,16,56,5.00
2020,01,24,16,57,5.00
2020,01,24,16,58,1.70
2020,01,24,16,59,0.00
2020,01,24,17,00,0.00
2020,01,24,17,01,0.00
2020,01,24,17,02,0.00
2020,01,24,17,03,0.00
2020,01,24,17,04,0.00
2020,01,24,17,05,0.00
2020,01,24,17,06,0.00
2020,01,24,17,07,0.00
2020,01,24,17,08,0.00
2020,01,24,17,09,0.00
2020,01,24,17,10,0.00
2020,01,24,17,11,0.00
2020,01,24,17,12,0.00
2020,01,24,17,13,0.00
2020,01,24,17,14,0.00
2020,01,24,17,15,0.00
2020,01,24,17,16,0.00
2020,01,24,17,17,0.00
2020,01,24,17,18,0.00
2020,01,24,17,19,0.00
2020,01,24,17,20,0.00
2020,01,24,17,21,0.00
2020,01,24,17,22,0.00
2020,01,24,17,23,0.00
2020,01,24,17,24,0.00
2020,01,24,17,25,0.00
2020,01,24,17,26,0.00
2020,01,24,17,27,0.00
2020,01,24,17,28,0.00
2020,01,24,17,29,0.00
2020,01,24,17,30,0.00
2020,01,24,17,31,0.00
2020,01,24,17,32,0.00
2020,01,24,17,33,0.00
2020,01,24,17,34,0.00